Theta_e
309 309 309 310 313 319 321 320 322 321 321 320 320 318 318 320 321 322 321 323 327 328 328 328 327 334 342 346 348 348 348 349 349 353 354 350 351 353 351 350 350 348 345 343 342 340 340 341 340 339 337 334 332 331 330 330 329 331 335 339 340 339 339 338 338 337 337 337 335 334 335 336 334 334 333 334 335 334 335 334 336 336 337 336 335 335 336 337 334 330 328 323 318 318 318 316 315
309 310 310 314 317 318 320 319 320 321 319 319 320 319 319 321 321 320 322 326 330 330 330 330 333 338 343 345 345 347 349 350 349 352 353 352 352 353 351 349 349 347 344 343 341 340 341 341 340 338 336 333 331 331 330 329 329 330 334 337 339 339 339 338 338 338 337 337 335 333 334 336 335 334 333 333 334 334 333 333 334 335 336 335 334 335 337 336 332 332 333 331 324 321 321 316 315
310 312 314 317 318 317 318 319 322 320 317 318 318 320 322 321 320 321 326 329 331 329 330 332 338 341 342 345 344 348 349 350 350 352 354 352 352 352 352 350 349 346 343 342 341 340 341 340 339 337 334 332 331 330 327 326 327 329 331 334 337 338 338 338 338 338 337 337 335 332 333 335 335 334 333 332 333 332 332 331 331 332 332 331 332 333 333 330 330 334 334 333 329 326 326 319 315
311 315 318 318 317 317 318 321 324 321 318 317 316 319 321 322 323 325 327 328 328 328 329 335 341 343 343 344 344 346 348 350 350 352 354 353 350 352 352 350 347 344 343 342 340 341 340 339 338 336 333 332 331 328 325 325 325 327 328 330 333 336 337 337 337 337 337 336 333 332 333 335 334 333 332 332 331 330 328 326 325 325 324 325 326 326 327 328 331 334 333 334 330 326 324 318 317
313 316 318 317 318 318 318 321 322 320 318 318 316 318 320 324 328 329 329 328 327 327 328 337 344 345 345 345 345 345 347 349 350 351 353 352 350 351 351 349 345 344 343 341 340 340 339 339 337 335 333 331 331 327 326 326 325 325 326 327 329 332 334 335 335 336 335 333 332 332 334 334 333 332 330 329 326 325 324 323 323 322 321 321 322 323 325 328 331 332 332 332 329 325 321 316 317
315 316 317 317 318 318 319 322 321 319 319 319 317 317 321 326 329 328 329 328 327 328 326 337 344 345 346 347 347 347 346 347 349 350 351 352 352 351 350 347 344 344 342 341 340 340 339 338 336 334 332 331 330 327 327 327 326 326 326 327 327 329 331 332 332 333 333 331 331 332 333 333 332 330 327 325 324 324 325 326 325 325 324 323 323 323 323 325 325 327 328 329 327 326 324 319 316
316 315 317 317 317 317 319 321 320 320 319 319 318 318 324 328 329 326 328 327 328 327 326 339 344 344 346 346 347 347 347 347 349 349 350 352 352 352 348 345 344 343 342 342 340 339 338 337 335 334 332 332 330 327 328 328 327 327 326 327 327 327 328 329 330 330 330 330 330 331 331 331 330 327 325 324 326 327 327 326 325 325 324 324 324 322 321 320 320 321 322 322 323 323 325 323 316
315 315 316 318 319 317 318 319 318 319 319 320 318 319 325 329 327 326 327 324 328 326 326 340 341 344 346 347 347 347 346 348 349 348 350 352 351 350 346 344 344 343 342 341 339 338 337 336 335 333 332 332 330 328 327 328 328 328 327 326 326 326 327 327 327 327 327 327 327 327 327 327 327 325 323 325 327 328 327 326 325 324 324 324 324 322 321 319 320 321 319 318 321 321 322 324 317
315 315 315 317 320 319 318 317 316 318 317 318 318 318 321 325 324 326 326 323 325 323 330 338 337 345 347 348 347 347 347 349 349 349 351 351 349 347 346 345 344 343 342 341 338 338 337 336 334 332 332 332 331 328 327 328 329 329 328 326 326 326 326 326 326 326 325 325 326 326 325 325 325 324 325 328 329 329 329 328 325 324 323 323 323 323 323 323 322 320 318 318 321 321 321 324 318
315 315 316 318 321 320 318 318 317 317 318 318 318 319 320 323 322 324 323 323 321 323 334 336 338 345 346 349 348 347 348 349 349 350 351 350 347 345 346 345 344 343 341 340 338 337 336 335 333 332 332 332 332 329 327 327 329 329 329 328 326 326 326 325 326 325 325 325 326 326 326 325 325 325 328 330 331 331 330 329 327 326 324 323 323 325 325 325 324 320 317 317 317 319 321 322 319
317 315 316 317 318 317 318 318 318 317 318 319 319 320 321 322 322 322 321 323 320 324 335 338 341 344 346 348 348 346 347 348 349 349 349 347 343 342 345 346 345 344 341 339 338 337 335 333 332 332 332 332 332 331 329 327 328 328 328 328 327 327 327 327 327 327 327 327 327 327 327 326 327 328 329 330 332 332 331 330 328 326 324 322 323 325 327 326 325 323 317 314 314 316 319 319 318
317 316 316 316 317 317 317 317 316 318 318 318 319 320 321 321 322 321 320 321 320 320 327 336 341 342 346 347 346 345 345 347 348 348 347 344 342 344 345 346 346 344 339 338 337 336 335 333 332 332 332 333 332 331 330 328 328 327 328 328 328 328 328 329 329 328 328 327 327 327 327 328 328 329 329 330 331 332 331 330 329 327 324 323 322 324 327 326 325 325 321 315 314 315 317 318 317
316 317 316 317 319 317 317 315 316 319 319 319 320 319 321 320 320 319 318 319 319 319 324 335 339 342 348 346 346 345 344 345 346 346 344 342 343 345 346 347 346 343 338 336 336 335 334 334 333 333 333 333 332 332 331 329 329 328 328 328 328 329 329 329 329 329 328 328 328 328 328 329 329 329 330 330 330 330 329 329 329 327 325 323 323 322 323 325 324 326 325 320 315 313 316 318 318
315 315 316 318 320 317 317 316 317 318 318 320 320 319 321 319 319 319 319 319 318 322 331 337 338 343 348 346 347 344 343 343 343 343 341 341 343 345 345 345 344 341 338 336 336 335 334 334 334 334 333 333 333 332 332 331 330 329 328 329 329 329 330 330 330 330 330 329 328 328 328 328 328 328 329 329 328 328 326 327 327 326 324 322 323 321 320 324 325 326 325 323 319 314 314 317 319
315 315 316 317 318 316 316 316 317 316 316 321 319 320 320 319 320 319 319 320 318 326 336 339 337 343 348 347 347 343 342 342 341 342 342 343 343 343 344 345 343 341 339 337 337 336 336 335 335 335 334 334 334 333 333 332 331 330 329 329 329 330 330 330 331 331 331 330 329 329 329 328 328 327 327 327 326 326 325 325 325 324 323 322 322 321 320 321 323 325 324 322 321 317 313 316 318
315 315 316 317 317 316 316 317 317 315 317 319 319 320 319 319 319 320 320 319 319 322 330 336 335 339 343 343 343 342 341 341 340 340 341 343 342 342 344 344 343 341 339 338 338 337 337 337 336 336 335 335 334 333 332 332 332 331 331 331 330 331 331 331 332 332 332 331 330 330 330 329 327 327 327 326 326 326 325 325 324 323 323 322 321 321 319 318 321 324 324 323 322 320 314 314 317
315 316 317 317 317 316 316 318 317 316 318 318 320 319 319 320 319 320 320 320 321 320 326 334 334 333 338 338 339 342 342 341 340 339 341 342 341 342 342 342 342 341 339 338 338 337 338 338 338 337 336 335 334 333 333 333 332 332 332 332 332 331 332 331 331 332 332 331 331 330 330 330 328 328 328 327 328 327 326 325 324 323 322 322 322 321 319 318 319 321 323 323 322 322 316 314 315
315 317 318 316 317 316 316 318 317 318 319 318 320 319 320 320 319 320 319 321 320 321 332 338 335 336 338 339 341 342 342 341 341 340 341 341 341 342 341 341 341 341 339 338 338 338 339 339 338 338 337 337 336 335 334 333 332 332 332 331 331 331 331 332 331 331 331 331 330 330 330 330 330 330 329 329 329 328 327 326 325 322 319 319 320 320 319 318 319 320 323 322 322 323 318 316 316
315 317 318 316 316 316 316 317 317 318 318 318 319 318 320 319 318 319 318 321 319 324 338 343 343 344 343 342 342 342 342 342 342 342 343 342 341 342 340 340 341 341 340 340 339 339 340 339 339 339 338 338 338 337 336 335 333 333 332 331 331 331 331 331 331 331 331 331 331 331 330 330 331 331 330 330 330 330 329 328 325 322 319 317 317 319 319 319 320 321 323 323 322 323 319 316 317
314 316 317 317 317 316 316 317 317 318 318 317 318 318 319 319 319 319 317 321 318 322 338 345 346 346 345 344 343 342 342 342 342 343 343 342 341 340 340 341 341 341 340 340 341 340 340 340 339 339 339 338 338 338 338 337 335 335 334 333 333 332 332 332 332 331 331 332 331 331 331 331 331 331 331 331 331 331 330 329 326 323 322 319 317 319 321 322 322 322 323 323 323 323 319 319 322
315 316 316 316 315 316 316 316 317 317 318 317 317 317 318 318 318 319 319 320 319 323 335 343 347 346 345 345 344 343 343 343 343 343 342 342 341 340 340 341 340 339 340 340 341 340 340 340 340 340 339 338 339 338 337 337 337 337 336 335 335 333 333 333 332 332 331 332 332 332 332 332 332 331 331 331 331 330 329 329 328 327 327 324 322 321 324 327 326 325 325 323 324 323 321 324 327
315 315 315 315 315 315 315 316 316 317 318 316 317 317 317 318 317 319 319 318 322 328 332 338 346 346 345 346 345 345 343 343 344 342 342 341 340 340 339 338 336 336 339 340 340 340 340 339 339 339 338 337 337 336 335 336 336 337 337 337 336 335 334 334 333 333 332 333 332 332 332 332 331 331 331 331 331 330 330 330 329 329 330 329 327 326 328 330 329 329 327 325 324 324 326 328 327
315 315 315 316 315 315 316 317 317 317 318 316 316 317 316 316 317 319 317 323 331 332 333 341 346 347 346 346 346 345 344 343 343 342 342 341 341 341 339 338 337 338 339 339 339 339 339 339 338 338 336 336 336 334 334 335 336 336 337 337 337 337 336 336 335 334 334 333 333 333 333 332 331 331 331 331 330 331 331 331 331 331 330 331 330 330 330 331 330 330 330 328 325 325 327 329 329
315 315 315 316 316 316 316 317 317 317 317 316 317 316 316 316 317 318 316 328 338 337 340 344 345 347 347 347 346 345 344 343 343 342 341 340 340 339 338 337 339 339 337 338 339 337 336 337 337 337 336 335 334 334 334 335 335 336 337 337 336 337 336 336 335 335 335 333 332 333 332 332 332 331 331 331 330 331 331 331 332 331 331 331 331 331 331 330 330 330 330 330 328 327 327 328 329
315 315 315 316 315 316 316 316 316 317 317 316 317 316 316 316 317 318 317 329 338 339 343 345 346 347 347 345 344 344 342 341 340 340 340 339 338 336 334 334 336 336 332 336 339 335 334 335 336 336 335 334 333 333 333 334 334 334 336 336 335 336 335 334 334 334 334 332 332 331 332 332 332 332 330 330 330 331 331 331 331 331 330 331 331 330 331 330 330 330 329 328 328 329 329 329 329
315 315 315 315 315 316 316 316 316 317 317 316 316 315 316 316 318 316 319 332 337 339 341 342 344 345 346 345 345 344 342 341 339 339 340 340 338 335 332 331 334 332 327 335 338 334 334 335 334 334 333 333 333 333 332 333 333 333 334 334 334 334 333 333 333 333 332 333 332 330 331 331 332 332 330 330 331 331 331 330 331 331 331 331 331 331 331 331 330 330 329 328 328 328 329 330 329
315 315 315 316 315 316 316 316 316 317 317 316 316 316 316 317 318 315 322 334 336 338 341 340 342 344 345 344 344 344 343 342 340 340 340 338 336 335 334 333 333 330 327 334 335 334 334 332 332 332 331 331 330 331 331 331 332 331 332 332 332 332 333 333 332 331 332 332 332 330 330 330 331 331 330 330 331 330 331 330 330 331 331 331 331 331 331 330 330 330 329 329 329 328 328 329 328
316 315 316 316 315 316 316 315 316 316 316 316 316 316 316 316 317 316 325 334 334 337 340 340 342 343 344 344 343 343 343 342 340 339 338 336 334 332 334 333 331 328 329 331 332 333 333 332 331 331 329 329 329 329 330 330 329 330 332 332 332 331 331 333 332 332 332 331 332 331 330 330 329 330 330 330 330 330 331 330 329 330 331 331 330 330 331 330 330 330 329 329 328 329 329 328 327
316 315 315 315 316 315 316 315 316 316 315 317 316 315 316 316 317 316 324 332 332 337 339 338 340 341 342 343 342 341 340 339 339 337 335 334 333 331 332 331 328 328 330 330 330 332 333 332 332 330 328 328 329 329 328 327 327 328 329 330 331 331 331 332 333 333 332 331 332 332 332 331 330 330 331 331 329 330 330 330 329 328 329 329 329 330 331 330 330 330 328 328 327 328 329 328 328
315 315 315 315 315 314 315 316 316 316 315 317 317 315 317 317 317 317 323 328 330 334 337 338 337 338 337 337 338 339 339 337 337 336 332 330 331 331 330 329 329 330 330 330 329 331 333 332 331 331 330 329 330 330 328 327 328 328 328 328 329 330 330 331 331 332 332 332 332 332 332 332 330 330 330 331 330 330 331 331 330 328 328 327 328 330 331 330 330 330 328 327 327 326 328 328 329
315 315 314 315 314 313 315 315 315 315 315 317 316 315 318 317 316 320 324 328 328 331 335 337 336 336 336 335 335 337 337 337 337 334 328 327 330 330 325 326 331 330 330 330 329 330 331 330 330 330 330 330 330 329 327 327 328 328 328 329 330 329 329 330 330 330 330 331 331 331 331 331 331 330 330 330 330 331 329 329 330 329 329 327 327 330 331 330 330 329 329 327 327 326 326 328 328
315 314 315 315 313 312 314 315 315 315 315 317 316 316 319 317 318 323 324 327 329 329 332 335 333 334 336 335 334 334 335 334 333 329 325 325 328 325 321 327 332 330 330 330 328 329 329 328 325 323 327 330 328 327 327 327 327 327 328 330 328 327 328 329 328 329 329 329 329 330 330 330 330 329 329 329 329 330 329 328 329 328 328 327 328 328 328 329 328 328 328 328 327 326 325 326 327
316 315 316 316 314 313 313 315 316 315 316 316 317 318 319 318 319 322 322 325 329 330 331 332 331 331 334 335 334 333 332 330 328 326 325 324 323 322 325 331 332 330 331 329 328 329 326 321 316 314 319 321 318 319 324 327 328 328 328 327 323 323 325 326 327 328 328 328 329 330 329 329 328 328 328 328 328 329 329 328 326 326 324 324 327 326 324 327 329 328 328 328 328 327 326 327 326
319 317 316 317 315 314 313 315 316 316 317 317 317 318 318 318 319 319 320 323 329 332 331 332 332 331 334 335 333 332 330 329 326 326 328 327 327 329 330 332 331 329 330 328 327 326 321 314 312 312 312 312 311 313 318 325 327 325 323 323 322 322 324 325 325 326 328 328 328 328 328 328 327 327 327 327 326 328 329 328 326 326 325 324 325 324 323 327 329 328 328 329 329 328 328 328 327
321 319 317 319 317 315 314 315 316 316 317 317 317 318 317 319 318 319 319 320 329 333 333 333 333 332 333 334 332 330 329 328 327 326 327 330 332 333 332 331 330 329 328 326 323 321 316 312 312 311 310 310 311 311 313 317 320 320 322 323 325 326 325 325 322 321 325 327 327 327 327 327 327 328 328 327 326 326 328 328 327 327 327 327 326 324 324 327 328 328 329 329 329 329 328 329 328
320 320 319 319 317 316 315 315 317 317 317 317 319 318 318 320 319 320 319 318 328 332 333 332 333 333 332 333 332 332 329 327 327 328 329 332 333 331 331 331 329 327 324 321 319 317 314 312 312 311 311 311 312 312 312 315 317 320 323 324 325 326 326 325 323 319 320 320 322 323 324 325 327 328 329 328 328 328 328 328 328 328 328 328 327 326 326 328 329 329 329 329 329 329 328 329 328
322 320 319 318 315 316 318 317 317 320 319 318 320 320 319 320 322 322 318 317 327 330 332 331 332 333 333 333 332 333 332 329 330 332 332 333 332 330 331 330 328 326 322 319 319 316 314 313 312 311 312 311 312 313 314 316 319 321 324 325 324 325 325 325 324 323 320 317 314 314 317 320 323 327 327 325 325 326 327 327 327 328 328 328 328 327 327 328 329 329 329 329 329 329 329 329 328
324 321 319 317 316 316 319 319 317 323 327 322 320 321 321 322 322 322 319 319 325 329 330 329 330 331 332 333 333 332 333 332 332 334 334 332 331 330 331 330 329 325 321 319 319 316 314 313 313 312 312 311 313 316 317 319 320 321 322 323 322 322 323 324 325 325 323 320 317 314 316 318 317 318 319 319 321 323 325 326 325 326 327 327 328 328 327 328 329 329 329 328 328 328 329 329 329
323 321 319 318 317 315 322 326 318 322 327 322 321 322 322 325 323 322 321 320 322 327 330 329 329 330 331 332 332 332 333 332 331 333 334 332 331 330 330 331 329 326 322 319 318 316 315 314 313 313 311 312 315 320 322 321 322 322 320 320 319 318 321 321 321 323 320 317 317 314 313 316 315 314 315 318 323 323 324 325 324 325 327 327 328 328 327 327 328 328 328 328 327 326 326 327 328
322 320 318 318 316 314 321 328 322 324 326 321 324 325 325 327 325 324 323 319 319 323 327 328 328 329 330 332 333 332 332 331 330 332 332 331 331 329 328 329 329 328 325 321 318 316 315 314 313 312 311 313 319 323 324 322 323 324 322 321 318 318 320 316 311 313 311 308 310 311 314 319 319 318 318 321 323 323 324 324 322 323 326 327 326 326 326 326 326 326 326 327 326 325 324 325 326
324 323 318 317 318 315 319 326 327 329 330 326 324 326 331 329 323 325 325 321 320 319 322 324 326 327 329 331 332 331 332 330 329 331 330 329 331 330 328 328 329 329 327 326 324 320 317 314 313 312 311 315 322 324 323 322 323 323 322 322 321 321 318 310 306 309 308 307 309 312 316 321 322 322 322 321 322 322 323 323 322 323 325 325 325 325 324 325 325 325 326 326 325 325 325 325 325
323 326 324 320 319 319 320 325 327 325 327 330 323 322 333 333 320 321 326 323 321 320 320 320 321 327 328 331 332 331 332 330 329 329 329 328 329 330 328 327 328 329 329 330 329 326 322 316 313 312 311 316 322 321 320 320 319 319 319 319 318 317 313 308 308 309 309 309 310 310 313 317 321 322 322 320 320 322 323 322 322 324 324 324 324 323 323 323 324 324 325 326 325 324 325 326 325
320 325 326 322 319 319 322 323 322 321 324 331 325 321 330 333 323 322 324 322 322 322 324 321 318 324 328 330 331 331 331 330 329 328 329 328 328 329 329 327 327 329 331 333 331 331 328 320 315 314 311 315 318 317 316 316 316 315 314 312 310 310 309 308 309 308 308 308 308 308 309 311 315 317 318 319 319 321 322 322 322 322 323 323 322 323 322 322 323 324 324 324 324 324 324 325 325
320 327 323 320 319 320 323 323 320 322 325 328 326 321 323 325 325 325 323 322 323 322 324 322 319 319 326 330 331 330 330 329 328 328 329 329 327 326 328 327 327 328 331 332 332 331 330 323 318 316 314 315 315 314 314 313 312 311 310 309 308 307 308 308 309 308 308 308 307 307 308 308 310 311 313 316 319 321 321 321 320 320 321 322 322 322 322 323 322 322 322 322 323 323 324 324 324
322 328 322 320 319 319 323 321 319 322 321 320 323 321 318 321 325 325 321 319 320 322 324 323 320 319 323 329 330 329 329 328 327 328 329 328 327 326 327 327 327 328 329 330 330 331 331 328 324 320 318 318 314 312 313 311 310 309 308 309 309 308 309 308 308 308 307 308 307 307 307 307 308 307 308 310 313 318 321 320 319 319 319 319 320 321 321 320 318 316 318 319 319 319 322 323 323
323 324 321 319 318 320 322 320 320 323 321 321 323 320 317 322 327 325 321 320 322 324 325 323 320 319 323 326 328 328 328 328 326 327 328 327 327 327 326 326 326 327 329 329 330 331 332 331 326 321 321 321 317 312 312 312 309 310 310 310 310 309 309 308 308 308 307 307 307 307 307 307 307 306 306 306 306 312 318 319 317 317 314 311 311 313 312 310 307 307 310 314 315 318 320 322 322
322 322 320 319 320 322 320 321 324 324 324 324 324 321 319 321 326 325 322 323 327 328 324 322 320 319 322 324 327 328 327 327 327 327 328 327 327 326 325 325 325 325 327 328 329 329 330 329 325 321 321 323 320 313 311 311 310 311 313 312 310 308 309 309 308 308 308 307 306 307 307 307 307 307 306 306 305 307 312 314 313 310 307 305 305 305 305 304 303 303 305 307 310 314 316 316 315
319 321 319 319 323 322 319 324 326 323 325 326 322 322 321 321 324 326 325 324 326 329 325 323 321 318 320 321 324 327 325 326 326 326 327 326 326 327 326 326 326 326 327 327 328 327 329 327 323 322 322 323 322 315 312 311 310 313 316 313 311 308 309 309 309 309 308 307 307 307 307 306 307 307 306 306 306 305 306 307 308 306 305 306 306 306 306 306 305 305 305 304 306 307 309 308 307
316 319 317 316 320 320 321 326 326 323 326 327 323 323 321 322 325 325 324 323 322 325 322 320 320 318 319 321 323 326 325 324 325 324 326 326 325 326 326 327 326 326 327 327 327 328 329 328 324 323 322 323 322 316 312 311 311 314 317 315 312 309 309 309 309 309 309 308 307 307 307 307 306 307 307 306 306 306 306 305 305 306 306 306 306 306 306 306 306 306 306 306 306 306 306 306 306
315 318 317 316 317 319 322 323 323 325 328 328 326 324 321 324 327 324 322 322 321 319 319 318 318 318 319 321 324 326 326 325 324 322 322 322 323 324 324 326 326 325 326 327 327 327 328 327 327 326 323 323 324 317 311 311 311 315 317 316 314 310 308 309 309 309 309 308 308 308 307 307 307 307 307 307 307 306 306 306 306 306 306 306 306 306 306 306 306 306 306 306 306 306 306 306 306
316 317 317 320 319 320 323 322 322 326 328 326 324 324 323 324 331 329 321 319 319 318 319 318 318 319 321 322 323 325 325 324 323 321 320 321 324 326 326 327 325 323 324 328 329 329 328 326 326 326 324 324 325 320 313 310 311 315 318 318 316 311 309 309 309 309 309 308 308 308 308 308 308 307 307 307 307 307 307 307 306 306 306 306 306 306 307 306 306 306 306 306 306 306 306 306 306
319 317 315 321 321 322 325 323 322 321 322 325 323 323 327 327 332 330 320 318 319 318 319 318 319 322 322 323 323 324 325 325 325 325 324 324 326 328 329 330 330 328 329 331 331 331 331 328 325 324 325 326 326 321 316 313 311 314 318 319 318 314 310 310 309 309 310 309 308 309 309 309 308 308 307 307 307 307 307 307 307 307 306 306 306 306 306 306 306 306 306 306 305 305 305 305 305
319 317 316 321 322 322 323 322 321 318 320 326 322 320 322 320 324 324 319 320 319 318 319 317 319 323 322 323 323 323 325 326 328 327 326 326 326 327 328 328 331 332 332 332 331 330 330 328 324 323 326 327 325 323 320 315 312 313 318 320 320 317 312 312 311 310 310 311 310 310 309 310 310 309 308 308 308 307 307 307 307 307 307 307 307 306 306 306 306 306 306 306 305 305 305 305 305
316 314 316 319 318 321 322 320 319 318 320 322 319 319 319 319 324 325 319 320 319 318 320 318 320 323 323 324 324 323 324 324 326 327 326 326 326 326 327 327 328 330 331 331 329 329 329 328 326 325 327 327 326 324 320 314 312 313 316 319 321 319 315 314 315 313 313 315 315 312 311 311 311 310 310 309 308 308 308 307 307 307 307 307 307 307 307 307 306 306 306 306 306 305 305 305 305
314 313 314 317 317 318 320 318 319 320 320 320 321 321 318 319 327 326 320 321 319 318 319 319 321 323 323 325 324 324 324 323 324 325 325 326 325 325 325 325 326 327 328 328 328 329 329 328 328 328 327 327 327 326 321 314 312 313 316 319 321 321 318 317 319 318 316 317 318 316 314 312 311 311 311 311 310 309 309 308 308 308 308 308 307 307 307 307 307 307 307 307 307 306 306 305 306
316 314 313 315 315 315 318 319 321 321 320 320 322 320 319 320 324 323 322 322 320 318 319 320 321 322 323 324 325 324 325 324 324 324 324 325 325 325 325 324 325 326 326 327 327 327 328 328 329 328 328 327 326 326 321 314 311 313 319 322 321 321 320 318 320 320 319 318 319 319 318 316 314 313 313 313 312 311 310 310 309 309 309 308 308 308 308 308 308 308 308 308 308 307 307 307 307
317 315 313 315 318 318 320 319 317 319 320 320 320 319 322 327 324 321 323 325 324 322 322 321 321 322 324 324 324 324 324 323 323 322 323 324 325 325 325 325 325 326 326 326 325 327 327 327 328 327 328 328 326 325 322 316 312 315 320 323 321 321 321 319 319 321 320 319 319 320 320 319 318 317 316 316 316 315 314 313 312 312 311 310 309 309 308 308 308 308 308 308 308 308 308 308 308
315 315 314 320 326 325 324 323 320 320 320 324 325 322 326 334 327 321 323 324 324 323 322 322 322 321 323 323 323 324 323 323 322 320 320 323 324 325 325 325 326 325 325 325 325 326 326 327 327 326 327 327 325 323 322 319 317 318 321 321 321 321 321 320 321 322 321 321 320 321 321 320 319 319 318 318 318 318 318 318 317 316 315 313 312 311 310 309 308 308 308 308 308 308 309 309 308
Wind_Speed
4 5 3 2 1 1 3 2 0 2 1 3 5 4 7 8 7 9 9 3 1 5 16 17 17 22 18 15 17 19 16 6 2 3 6 12 20 23 22 18 19 25 28 29 29 28 26 24 24 23 22 21 21 21 21 21 20 20 19 18 17 15 14 13 13 13 14 13 12 12 12 13 12 11 10 9 11 11 11 10 10 11 10 10 10 9 9 6 4 7 9 9 9 8 9 10 10
5 6 7 6 2 2 4 1 1 2 2 3 5 6 8 8 8 8 6 1 4 8 20 22 22 28 29 24 21 20 18 14 15 17 18 21 23 20 18 16 20 27 29 30 30 28 27 25 24 23 22 22 21 20 20 21 21 20 19 18 16 14 13 13 12 12 12 12 11 11 11 12 11 11 9 8 9 9 9 9 9 9 9 8 8 8 8 5 5 8 9 9 9 8 8 9 10
5 4 6 6 3 2 5 2 2 1 2 4 6 6 6 9 8 4 2 7 9 11 16 20 19 20 24 21 18 16 10 16 24 27 24 23 24 21 18 17 23 28 30 31 30 28 27 27 25 24 23 22 21 20 20 20 21 20 19 18 16 14 13 12 12 11 11 11 11 11 11 11 11 10 9 9 8 8 8 7 7 7 7 6 6 7 6 5 6 8 8 7 7 9 9 8 10
3 3 6 4 3 2 2 1 3 2 2 5 6 5 6 7 2 3 6 12 10 9 10 14 12 15 22 16 14 16 10 14 21 26 24 20 22 23 21 21 26 28 30 30 29 29 28 27 26 25 23 22 21 20 20 20 20 20 19 17 16 15 14 12 11 10 10 9 10 12 12 11 10 9 9 9 9 8 7 6 6 6 6 5 4 4 5 6 7 7 6 6 5 7 9 9 10
4 5 5 2 1 2 1 1 2 3 5 5 4 5 6 6 4 5 5 11 11 8 7 10 7 13 22 15 11 9 9 15 17 19 21 18 19 22 23 25 28 29 30 30 30 29 29 28 26 25 24 22 21 21 21 21 21 20 19 18 16 15 14 13 11 10 10 9 10 12 12 11 10 9 9 9 9 8 7 6 6 6 6 5 4 4 5 6 7 6 5 5 4 4 6 7 9
6 4 2 2 4 4 2 2 3 3 7 7 5 7 7 5 5 4 3 8 11 6 5 11 14 15 15 15 18 13 8 14 15 15 18 20 20 20 23 27 29 29 31 30 30 29 29 28 26 25 24 23 21 22 22 22 21 20 19 18 17 16 15 14 12 11 10 10 11 11 11 10 9 9 9 9 8 8 7 7 7 7 7 6 6 5 5 5 5 4 3 2 2 2 3 5 7
5 5 0 3 5 4 1 3 4 5 8 9 9 8 7 3 3 4 3 4 6 4 4 14 24 20 9 10 15 15 10 14 17 17 17 21 20 19 23 27 29 30 31 30 29 29 29 27 26 25 24 23 22 22 22 22 21 21 20 19 18 17 16 15 13 12 11 11 11 11 10 10 9 10 9 8 7 7 7 7 7 7 7 6 6 6 5 4 3 3 1 0 1 0 2 3 6
5 4 4 1 2 1 2 4 5 6 8 11 11 9 10 5 5 3 3 4 2 1 10 22 26 18 8 12 11 9 12 15 17 17 18 22 20 18 23 27 30 30 30 29 29 29 28 26 26 24 24 23 22 22 21 21 21 21 20 19 18 17 16 15 14 14 13 12 12 11 10 10 9 9 8 7 7 6 6 6 6 6 6 6 6 6 5 4 4 3 1 1 1 1 2 4 6
3 5 6 1 2 2 3 5 6 7 10 13 13 14 14 4 7 4 3 4 0 3 9 23 21 12 10 17 13 10 17 19 19 19 20 22 20 18 22 25 27 30 29 28 28 28 27 25 24 23 23 22 21 21 21 21 20 20 19 19 18 17 17 16 16 15 14 13 12 11 11 10 9 8 7 6 6 4 4 4 5 5 6 6 6 6 6 7 6 5 3 1 1 2 3 4 6
7 8 5 1 1 3 4 5 6 7 10 12 13 17 11 4 7 4 1 5 6 7 14 24 18 16 15 13 12 16 22 24 23 22 21 20 20 18 21 24 22 26 29 28 28 27 27 25 24 23 22 21 21 21 20 20 20 19 19 18 18 17 17 16 16 15 14 13 12 11 11 10 9 8 6 5 5 4 3 3 4 5 5 5 6 6 7 8 7 6 5 2 1 3 4 5 6
7 9 7 2 2 4 5 5 7 7 9 10 13 21 14 9 7 5 3 4 9 7 17 21 14 20 16 7 11 18 23 24 22 21 19 17 20 17 19 21 16 21 27 27 28 27 26 24 23 21 21 20 19 20 20 20 19 19 18 18 17 17 16 15 15 14 13 12 12 11 10 10 9 7 6 5 4 3 3 3 3 4 5 5 5 6 6 7 6 6 7 5 3 3 4 5 6
5 5 4 2 3 4 5 6 7 8 8 7 9 13 5 11 5 6 5 4 5 10 4 10 13 21 11 4 11 19 22 21 20 19 17 14 17 17 17 17 13 18 25 27 27 26 25 24 22 21 20 19 18 19 19 19 19 19 18 18 17 16 15 14 14 13 13 12 11 10 10 9 8 7 6 5 4 4 3 3 3 3 4 4 4 5 5 5 5 6 7 8 5 3 4 6 7
8 3 2 2 4 4 6 6 7 8 7 5 5 6 11 13 6 8 8 7 6 12 1 13 21 19 7 6 13 20 21 19 19 18 17 14 16 18 17 15 14 19 24 25 24 24 23 23 22 21 20 18 18 18 18 18 18 18 18 17 17 15 14 14 13 12 12 11 11 10 10 9 8 7 6 6 5 4 3 3 3 2 3 3 4 5 4 3 4 5 6 7 6 4 4 6 7
12 8 4 3 4 4 5 5 7 6 5 6 2 8 10 8 9 14 11 6 9 7 12 18 23 15 7 8 11 20 21 19 20 18 17 16 17 18 16 16 17 20 21 22 22 21 21 21 20 20 20 19 18 17 17 18 18 18 17 17 16 15 14 13 12 11 11 10 10 10 9 9 9 8 7 7 6 5 3 3 3 3 3 3 3 3 3 3 3 4 4 5 6 5 4 5 7
15 13 4 2 5 4 5 5 7 6 5 7 0 5 6 7 7 10 8 0 7 9 19 18 19 11 10 11 10 22 23 21 22 20 20 17 18 17 16 16 17 19 20 22 21 18 18 18 19 19 18 18 17 16 16 17 17 17 16 16 15 14 13 13 12 11 10 9 9 9 8 7 8 8 8 7 6 5 4 3 3 3 3 3 2 2 2 2 2 3 3 4 5 5 4 5 7
17 13 2 2 5 4 5 5 6 6 5 5 6 5 5 6 3 3 6 4 4 2 8 12 12 6 18 19 17 28 26 24 23 21 22 19 19 18 18 18 18 19 20 20 18 18 19 19 18 17 17 17 16 15 15 15 15 15 15 14 14 13 12 12 11 10 9 8 8 8 6 6 6 6 6 6 6 5 4 4 3 3 3 3 2 2 2 1 1 3 2 3 4 4 5 5 6
17 11 3 3 5 5 5 5 5 5 3 5 13 14 6 5 7 6 3 4 2 6 5 11 8 6 20 17 21 33 28 26 24 22 24 20 20 20 19 18 18 21 21 20 18 19 22 21 20 18 18 17 16 15 14 14 14 14 14 13 13 12 11 10 9 9 8 8 8 7 6 5 5 5 4 5 4 4 4 4 4 3 3 3 3 2 1 1 1 2 2 2 3 4 5 6 6
13 4 4 5 5 6 6 8 7 3 0 4 8 9 7 5 8 9 4 2 2 4 12 18 11 12 19 19 27 35 30 27 23 23 24 21 20 18 18 17 19 22 22 21 19 20 22 22 21 19 18 17 16 16 15 14 14 14 13 13 13 11 10 9 9 9 8 7 7 6 5 5 4 3 3 4 3 4 4 4 3 2 3 3 3 3 1 1 1 1 2 3 4 5 5 6 6
9 2 4 5 5 8 11 13 10 8 4 4 6 8 7 4 6 8 4 4 5 2 14 22 22 24 25 28 33 34 31 28 24 24 24 21 19 19 20 20 20 22 22 22 20 20 21 21 20 19 18 17 17 16 16 15 14 14 13 13 12 11 11 10 10 9 8 7 7 6 5 4 3 2 3 3 3 4 5 4 3 2 2 2 3 2 2 1 1 1 2 2 5 6 7 7 9
11 7 4 4 6 8 16 19 14 14 8 3 7 9 7 4 7 6 4 6 8 3 10 17 21 27 30 33 35 34 33 29 25 24 23 21 21 22 22 22 21 19 18 18 19 20 20 20 20 19 18 17 17 16 15 15 15 14 13 13 12 12 12 11 10 9 9 7 6 6 5 4 4 3 3 4 4 5 4 4 3 1 1 2 2 1 1 2 2 2 2 3 5 8 10 11 11
9 9 5 6 8 8 17 23 15 13 11 9 9 9 7 7 10 7 3 5 5 3 10 18 23 30 33 34 35 36 35 31 27 23 23 23 23 22 19 19 17 13 13 13 15 16 17 18 18 18 17 17 17 15 14 14 14 14 14 14 13 13 12 11 10 10 9 7 7 7 6 6 5 5 5 5 6 6 5 4 3 2 1 2 1 1 0 1 0 1 2 3 5 9 12 11 9
6 7 9 11 12 9 18 25 12 9 12 12 8 7 7 9 11 5 2 2 2 4 7 22 29 33 34 34 36 36 35 33 29 24 23 22 22 20 18 17 13 12 13 12 14 14 15 16 15 15 15 15 13 12 12 12 13 14 14 14 14 14 12 12 11 11 11 8 8 9 9 8 7 7 7 7 7 6 6 5 3 3 3 2 1 2 1 1 3 2 2 4 6 9 11 9 7
7 6 10 15 16 12 17 23 14 6 6 6 5 9 11 10 8 5 5 3 12 9 11 23 29 29 29 32 34 35 34 32 29 26 23 22 22 19 18 17 16 18 16 13 14 14 13 13 13 13 12 12 11 11 11 12 12 12 14 12 12 13 12 12 12 12 12 10 9 11 10 9 9 9 9 8 7 7 7 5 3 3 3 3 3 4 3 3 4 3 3 5 7 10 10 8 7
10 6 8 15 18 16 18 21 18 9 3 4 7 11 12 10 6 8 7 13 27 24 26 27 27 24 24 27 27 30 30 27 25 24 22 20 19 17 16 17 18 21 16 13 15 14 13 11 12 11 10 11 10 10 11 11 11 11 12 11 11 11 11 11 12 12 11 9 10 10 10 10 10 10 10 9 8 8 8 6 5 4 4 5 4 4 6 5 5 4 3 4 6 9 9 9 7
10 8 10 14 17 19 20 22 23 14 5 6 9 9 12 16 9 9 5 20 32 32 34 28 26 24 24 24 23 25 25 24 23 22 21 18 18 17 16 17 19 19 14 13 15 12 12 13 13 10 10 9 7 8 9 8 8 10 10 10 10 10 9 10 11 11 10 10 11 10 10 10 11 11 10 9 8 8 7 7 6 6 6 7 5 4 6 5 5 4 3 4 4 5 5 7 8
8 12 12 11 12 17 21 22 19 12 10 9 8 8 14 19 10 10 6 23 32 33 33 27 25 24 25 24 21 23 23 24 22 21 20 19 21 21 19 18 19 17 13 17 18 12 12 13 13 10 10 9 7 6 6 6 6 8 9 9 9 8 8 9 9 9 10 11 11 11 12 12 12 12 10 9 10 9 7 7 7 6 8 8 5 4 5 4 5 4 4 3 3 4 4 5 7
10 10 8 7 9 15 20 20 12 9 14 14 9 6 14 19 10 8 6 26 30 32 33 26 26 26 27 25 21 22 22 22 20 21 22 22 23 22 23 21 20 17 14 21 22 15 13 13 11 11 10 9 7 6 5 5 5 7 8 7 7 7 7 9 10 10 11 12 11 12 13 13 12 12 11 10 11 10 9 8 7 6 8 6 4 6 6 5 4 2 1 1 3 5 4 4 4
17 13 7 8 10 13 16 13 10 10 11 16 14 8 14 16 9 7 13 30 28 29 33 27 28 28 27 24 20 20 20 20 20 21 22 23 23 22 23 22 21 19 13 17 20 18 15 13 13 12 11 9 8 7 5 5 6 6 6 6 6 7 8 9 10 10 11 12 12 12 13 12 11 11 12 11 11 10 9 8 6 6 6 4 4 7 8 7 7 5 2 1 2 4 2 2 2
17 13 5 5 7 10 14 10 12 12 6 13 15 7 11 9 8 17 20 30 29 30 31 27 27 26 25 22 20 20 20 22 22 22 22 21 21 22 22 21 19 17 12 13 17 20 19 16 16 14 12 11 9 7 5 5 7 6 6 5 5 6 7 8 9 9 10 11 12 13 14 13 12 12 12 13 12 10 9 6 4 5 5 3 4 6 8 8 8 7 4 2 5 6 4 6 6
11 9 3 3 5 7 12 11 15 13 9 16 11 3 8 8 10 17 20 27 30 30 29 26 25 23 21 20 20 22 22 24 25 23 21 19 19 19 18 18 17 16 16 17 17 22 25 22 20 15 14 15 13 10 7 7 8 7 7 7 5 4 5 8 10 11 10 11 13 15 15 14 12 12 12 12 12 9 7 5 4 6 6 5 5 7 11 11 9 8 7 6 9 11 10 11 12
5 4 3 2 3 7 9 10 14 11 13 19 11 3 7 9 11 12 23 27 30 28 28 28 25 23 21 20 20 22 22 22 23 23 21 19 19 16 14 15 17 17 19 20 18 24 28 23 20 17 16 18 16 13 11 10 10 8 8 7 6 4 5 7 10 11 11 12 14 14 15 14 13 12 11 12 12 10 9 9 8 8 8 7 7 10 14 12 11 11 10 10 13 15 16 17 16
2 2 5 3 4 8 8 10 15 12 12 16 12 4 7 8 8 16 22 26 30 27 28 30 26 25 23 23 23 22 22 21 23 24 22 22 18 13 14 18 19 20 21 20 20 23 24 19 17 17 19 18 15 13 13 13 12 11 10 7 5 4 5 5 6 9 10 11 12 12 12 13 13 12 11 11 12 12 12 11 11 9 7 7 7 9 11 9 12 15 12 11 13 16 18 20 19
2 4 5 5 5 8 7 9 17 15 9 10 11 4 5 6 4 18 16 21 30 25 26 29 27 26 25 26 25 24 25 24 26 27 26 27 23 20 21 22 22 23 22 22 23 22 20 19 17 18 19 18 14 13 15 15 12 12 11 9 7 7 7 5 5 7 8 9 11 12 12 12 12 11 11 11 10 11 12 11 10 9 8 8 9 9 9 10 14 16 15 13 13 14 16 18 19
4 4 5 5 7 7 5 6 11 14 7 7 9 6 4 4 3 16 13 16 28 26 25 28 28 28 27 29 28 27 27 27 29 30 30 32 28 25 23 23 25 25 22 24 24 22 22 21 20 20 19 17 15 15 17 17 14 11 9 8 9 11 10 7 6 6 7 9 10 11 11 11 11 9 9 9 9 10 10 10 11 10 10 11 11 11 10 12 15 17 17 16 15 13 13 14 15
3 4 4 4 7 7 5 5 6 11 8 7 8 7 6 4 3 14 15 15 24 26 25 27 28 28 29 30 29 29 27 27 29 28 29 30 27 24 22 23 26 24 23 25 24 24 24 23 22 21 20 19 17 15 15 16 14 13 12 10 10 12 13 10 7 6 8 10 10 11 10 10 10 8 7 6 8 9 10 13 14 12 13 12 12 13 12 12 16 18 17 17 16 14 13 12 11
4 5 4 4 7 7 6 8 8 9 7 6 8 8 7 6 6 10 16 19 25 27 24 25 25 26 28 28 29 30 28 28 29 27 27 28 27 26 23 23 26 24 23 26 26 25 24 23 22 21 20 19 17 16 15 15 17 18 17 15 13 12 13 12 9 7 7 8 8 9 10 10 10 8 5 5 6 8 10 14 12 8 10 10 11 13 13 14 16 17 17 17 17 15 14 13 11
4 5 5 7 7 7 2 7 9 6 6 4 5 5 7 5 6 7 13 17 23 25 23 23 24 25 27 28 29 30 30 30 30 29 28 27 29 30 24 23 27 24 24 27 26 25 23 23 23 21 21 19 17 17 16 16 18 19 19 18 16 13 12 12 11 9 7 7 6 6 8 9 10 10 9 7 6 7 7 7 6 3 5 7 9 12 13 15 17 16 16 17 17 16 15 14 12
4 4 5 8 6 6 6 5 4 3 7 1 3 2 6 4 5 6 8 12 15 22 24 24 26 26 27 29 29 30 30 30 31 31 30 29 30 31 25 24 28 26 26 28 25 25 23 22 22 21 20 19 18 17 15 15 15 16 18 18 16 14 14 12 13 13 11 10 8 7 8 8 8 9 8 7 6 5 3 2 3 3 4 5 6 9 11 13 15 14 15 15 15 16 16 15 14
4 4 5 6 5 5 6 4 4 5 5 2 6 6 7 6 7 7 2 7 14 27 31 32 32 27 26 28 28 29 28 28 31 32 32 31 31 32 27 24 27 27 26 27 25 24 24 21 21 21 20 20 18 16 14 15 16 15 16 17 15 14 15 13 13 15 13 12 12 11 10 10 9 8 6 6 6 5 4 3 4 3 4 4 3 5 7 9 10 12 13 13 14 15 15 15 15
2 2 2 5 6 3 4 5 5 5 2 3 6 6 7 6 7 8 3 3 11 24 32 38 40 34 31 31 31 31 30 30 31 31 32 33 31 31 29 26 25 26 25 26 26 25 24 23 21 20 20 20 18 18 17 17 18 17 15 16 14 13 14 11 11 14 13 12 13 14 14 13 12 11 11 10 8 7 6 3 3 3 5 6 6 5 4 5 6 9 11 11 11 12 14 15 14
4 4 3 5 8 4 1 3 3 5 5 4 6 6 6 5 5 7 5 2 6 15 21 26 31 35 34 31 32 34 33 33 32 31 31 33 32 31 30 28 25 25 25 26 27 26 25 24 21 20 20 20 20 21 21 18 20 20 18 18 17 15 13 11 13 16 14 14 14 14 16 16 14 13 13 12 10 10 8 5 4 5 7 9 10 8 6 5 5 7 8 8 8 8 10 13 13
4 4 6 7 9 8 2 1 3 5 5 3 4 3 5 6 5 7 6 3 3 8 11 12 16 28 36 31 30 33 32 32 32 32 32 32 33 32 30 30 28 27 27 27 27 26 26 24 21 19 20 20 21 23 21 19 19 19 19 20 19 17 17 16 16 16 15 14 14 14 15 16 16 15 14 12 13 13 10 10 11 9 9 9 10 9 8 7 6 6 6 5 5 6 7 9 10
3 4 5 5 7 9 6 2 3 3 3 3 5 5 3 6 6 7 6 4 5 5 7 9 12 22 35 32 29 31 30 31 31 31 32 32 32 33 32 31 31 31 31 30 29 28 27 25 23 20 20 20 21 21 20 18 17 17 17 17 17 18 20 19 17 16 15 14 14 14 14 14 14 14 13 11 14 15 13 13 13 12 11 9 9 9 8 7 6 6 6 6 5 4 5 6 7
3 5 4 5 6 7 5 3 1 3 2 3 2 6 2 4 6 7 5 6 6 4 6 8 9 16 31 36 34 34 33 34 34 33 33 32 32 34 33 31 32 34 34 32 31 30 28 27 25 22 21 21 20 19 19 18 17 17 17 17 17 19 19 20 18 16 15 14 14 14 13 13 11 11 12 12 13 16 15 14 13 12 12 11 9 9 7 6 5 5 6 5 5 6 6 6 6
6 7 5 4 4 6 5 3 2 2 2 3 3 4 2 4 6 7 5 5 3 5 5 5 4 8 24 37 35 32 32 31 30 31 31 31 32 32 32 31 31 34 35 34 33 32 30 28 27 24 22 22 22 19 18 18 17 18 20 19 19 19 18 19 18 17 16 15 14 14 13 12 11 10 11 10 11 15 16 14 12 11 10 11 11 10 9 8 7 7 8 7 6 6 7 7 7
6 4 1 2 4 5 6 4 2 2 3 3 6 1 1 3 6 5 4 4 2 5 4 5 11 18 23 31 30 26 28 28 26 27 29 30 31 30 30 30 30 31 34 34 33 33 33 32 30 28 25 23 24 22 20 20 20 20 20 19 19 19 19 19 18 17 16 14 14 15 14 13 13 12 12 11 11 14 16 14 11 9 8 10 11 11 10 8 7 7 8 8 8 8 8 8 7
4 4 2 3 3 3 5 4 1 4 2 4 6 3 2 3 5 4 1 4 6 5 4 7 15 21 24 26 29 27 26 26 25 24 27 29 27 26 27 27 28 30 33 34 33 32 33 34 33 31 30 27 26 26 23 22 22 21 19 18 18 18 19 18 17 17 15 14 15 15 14 14 13 13 12 12 13 13 14 13 9 8 9 12 13 11 11 10 10 9 8 8 9 9 8 6 6
2 4 3 3 4 4 3 4 4 3 3 5 2 3 2 3 4 5 4 3 4 6 6 8 11 16 24 26 26 24 21 21 20 19 23 26 22 21 23 23 23 26 31 33 34 33 32 32 31 31 31 30 31 31 27 24 23 22 19 18 17 16 17 16 15 15 14 14 15 15 15 14 14 13 13 13 13 13 13 11 10 10 11 13 13 12 12 11 11 11 10 9 9 8 7 6 5
1 4 4 3 3 3 2 3 2 1 5 3 3 6 2 4 5 6 6 2 4 5 6 13 16 19 25 29 27 26 24 21 20 18 18 20 17 17 21 23 23 24 28 32 32 32 32 32 32 32 32 32 36 36 30 26 24 22 21 19 17 15 15 15 13 13 13 13 15 16 15 15 14 14 13 12 13 12 12 12 11 10 10 10 10 10 10 10 10 10 10 9 9 8 7 6 5
1 3 4 3 2 0 2 2 1 1 4 4 3 4 3 3 3 6 7 2 9 14 13 19 23 22 24 28 28 25 21 18 16 13 12 12 13 13 14 18 22 25 26 29 31 30 30 32 34 34 33 35 40 39 32 27 25 23 21 18 16 15 16 15 13 12 13 13 15 16 15 15 14 14 13 12 12 12 12 11 11 10 9 8 8 8 8 8 8 8 7 7 6 6 5 4 4
4 4 6 4 4 4 2 2 1 2 3 5 2 2 2 3 3 8 6 4 16 22 21 21 23 23 25 26 24 22 18 15 11 9 7 6 9 9 8 8 15 22 22 23 29 30 29 31 31 31 34 38 41 40 33 28 25 23 22 19 16 15 15 15 13 12 12 12 14 15 15 15 14 14 14 13 12 11 11 11 10 9 9 8 7 7 7 7 6 6 6 5 5 6 5 4 4
4 2 4 3 4 5 3 3 4 3 1 3 2 2 4 3 4 8 1 9 14 20 20 18 20 25 28 25 22 20 17 15 13 11 9 6 5 6 6 2 5 12 14 18 27 29 30 31 30 31 36 38 37 34 29 27 24 23 23 20 17 16 15 15 15 13 12 11 11 13 13 13 13 13 13 12 12 11 11 11 10 9 9 8 7 6 6 6 5 5 5 5 5 6 6 6 6
3 2 1 4 5 7 3 1 3 2 2 2 3 2 3 1 3 6 3 7 7 12 14 13 18 25 27 24 22 19 16 16 15 12 11 8 7 7 5 3 5 7 9 12 16 18 23 28 33 35 37 34 31 29 27 24 23 22 22 21 20 17 16 16 16 14 13 11 10 10 10 10 11 11 11 10 11 10 10 10 9 9 8 7 7 6 5 5 4 4 4 5 5 5 6 6 6
2 2 3 1 2 4 4 1 1 1 1 3 4 3 2 1 3 4 4 6 5 8 9 11 18 23 24 23 22 18 15 15 14 14 13 11 9 9 7 5 4 5 8 8 5 3 6 14 25 30 33 32 29 28 28 25 22 21 22 22 21 19 18 16 14 14 13 12 11 10 9 8 7 8 8 7 8 8 7 7 7 7 7 7 6 6 5 5 4 3 3 3 4 5 5 5 5
1 4 4 2 3 1 1 2 1 1 1 2 4 4 2 2 2 3 2 5 5 7 9 10 13 17 21 23 21 17 15 14 14 14 14 12 11 10 8 7 5 4 5 4 3 1 0 3 9 14 21 28 28 26 28 26 23 21 20 21 21 20 18 16 14 12 12 12 11 10 9 7 6 5 5 5 4 4 4 4 4 4 4 4 5 5 5 4 4 3 3 2 2 3 3 3 4
3 5 4 1 4 2 1 3 3 3 3 2 3 3 1 1 2 4 6 4 4 5 6 8 11 17 23 23 20 16 14 13 13 13 12 12 12 11 10 8 7 6 5 4 3 3 3 3 5 6 12 23 27 25 27 27 24 21 20 20 20 18 16 16 14 12 11 11 11 10 10 8 6 5 4 3 3 2 1 0 0 0 1 1 2 2 3 3 3 3 3 3 2 2 3 2 2
1 1 2 2 1 1 1 1 1 3 3 1 1 1 3 4 2 5 6 2 6 6 6 6 9 18 24 23 20 18 15 12 10 10 10 12 12 12 10 10 9 8 7 5 5 5 5 4 5 5 9 19 25 24 25 27 25 24 25 24 20 17 17 16 14 13 12 11 11 11 10 9 7 6 5 4 4 3 3 4 3 3 3 4 5 5 5 5 5 4 4 4 4 4 3 3 3
1 1 3 2 1 3 3 3 3 1 2 3 3 1 5 5 2 3 5 6 6 8 10 8 10 18 22 22 20 17 14 12 10 10 11 12 13 11 10 10 9 9 8 6 5 5 5 5 7 7 9 17 22 21 23 26 26 27 28 27 22 18 17 16 13 13 14 14 13 12 11 9 8 7 6 5 6 6 6 6 6 6 6 6 7 8 8 9 9 9 8 7 7 6 5 4 4
Wind_Direction
189 182 159 102 142 298 357 59 323 254 167 264 254 247 252 243 249 273 285 296 55 22 55 66 52 62 82 89 91 72 51 49 68 121 139 152 161 175 180 180 176 164 155 149 146 147 147 143 138 135 132 132 131 131 134 138 143 147 150 152 151 147 142 137 132 129 128 126 123 124 130 129 122 121 121 118 117 117 117 116 111 107 105 102 100 94 95 95 57 72 95 104 107 109 115 122 131
166 164 136 100 66 341 322 128 185 278 165 277 258 235 254 263 269 267 276 9 68 57 67 64 53 68 85 86 82 67 51 67 94 107 120 151 162 169 178 175 171 162 153 148 146 146 144 141 137 135 134 132 132 132 135 139 144 148 151 152 152 149 144 139 135 130 128 127 123 124 130 130 123 122 122 119 118 117 119 117 113 108 107 108 106 104 102 96 72 82 93 97 106 111 116 124 130
170 164 121 83 22 290 291 301 203 240 184 252 257 247 259 263 262 260 65 74 56 54 69 65 53 59 76 72 66 75 83 87 102 116 123 154 160 156 173 170 164 159 151 148 146 145 142 139 137 135 135 133 132 132 134 139 144 148 150 150 151 151 147 143 139 133 129 125 121 126 131 130 124 121 122 121 119 116 117 115 113 111 112 118 121 120 113 100 86 90 93 95 108 115 120 127 133
186 152 111 62 349 260 275 295 197 192 226 247 261 270 271 268 203 119 77 85 71 49 62 75 58 56 74 71 72 86 101 106 117 126 130 158 166 161 170 164 160 156 150 149 147 144 141 139 138 137 136 134 131 130 130 134 141 145 147 148 149 150 148 145 142 136 130 123 120 126 129 128 123 119 120 121 120 118 115 110 110 114 121 127 129 131 115 98 96 98 96 102 121 130 134 135 140
120 121 116 66 350 278 294 219 223 185 228 244 259 281 292 296 78 104 79 83 84 53 51 94 93 69 72 61 63 74 92 114 122 132 138 155 170 169 167 162 160 156 152 150 147 143 140 140 138 138 136 134 131 129 128 129 134 140 144 143 145 146 146 145 142 137 130 121 119 123 125 123 119 117 118 119 118 115 111 107 108 109 112 112 106 110 102 102 112 119 118 123 126 126 131 134 148
100 83 127 228 266 293 323 255 263 243 239 242 254 276 284 299 25 53 84 86 88 71 41 94 109 92 78 67 59 46 87 121 128 148 154 154 169 171 163 162 159 155 153 150 147 143 140 140 139 139 137 134 131 129 128 126 129 132 137 138 140 142 142 141 138 134 128 122 120 120 120 119 116 116 116 114 110 108 108 106 106 106 105 103 95 92 89 99 113 112 121 126 90 81 99 122 151
63 11 197 208 261 270 274 247 260 266 256 251 250 263 266 228 66 22 24 58 66 58 72 99 107 97 82 98 65 41 94 134 140 156 164 159 169 169 162 161 157 154 152 149 147 143 141 141 140 140 137 134 131 130 129 127 127 127 131 133 135 137 137 136 134 131 127 124 122 121 120 118 117 117 115 108 105 103 102 100 98 99 98 98 92 89 81 75 80 78 90 5 12 89 112 130 152
40 326 278 190 276 240 212 256 253 254 263 266 261 263 263 227 114 67 21 39 32 43 116 112 104 91 67 98 81 55 112 135 142 157 161 156 158 161 162 159 156 154 151 149 146 143 141 141 141 140 138 135 132 131 131 130 128 128 128 130 131 132 133 133 132 130 128 127 124 124 122 119 120 120 117 108 105 99 95 91 89 89 88 91 86 83 80 76 75 69 55 298 248 170 152 153 156
344 265 278 286 233 264 243 254 248 247 257 263 268 268 267 262 72 58 335 17 354 291 122 120 106 100 97 91 91 103 120 131 141 154 158 155 150 150 154 155 158 154 151 150 147 144 141 142 142 140 138 135 132 131 131 131 130 130 130 129 129 130 131 131 131 131 129 128 126 126 124 122 123 121 116 108 108 103 94 87 88 88 83 83 80 77 79 82 79 67 57 42 210 157 157 159 159
281 238 246 275 235 275 264 260 250 250 253 257 263 261 257 158 112 102 309 342 336 345 98 114 107 114 118 103 107 121 127 137 146 153 157 157 151 149 146 150 159 155 152 151 147 143 141 142 142 141 138 135 133 132 132 132 132 132 131 130 130 130 131 130 130 130 129 129 127 127 126 126 127 124 118 110 109 108 101 95 99 95 87 86 84 83 83 83 78 66 57 66 130 142 151 157 161
270 232 222 262 277 264 256 259 259 260 258 262 266 260 246 189 175 118 93 359 330 338 108 106 103 120 119 111 124 133 139 144 150 152 154 157 155 156 148 143 154 160 155 150 147 143 141 142 143 142 138 137 136 134 134 133 134 133 132 131 131 132 130 130 130 130 129 128 128 128 130 130 130 131 126 118 111 110 112 112 118 104 95 96 91 91 89 84 75 61 52 59 100 133 142 151 156
252 247 219 218 238 236 248 256 266 272 274 271 269 275 207 140 119 96 76 45 344 318 131 130 145 139 119 95 133 145 149 151 157 154 154 158 154 155 149 142 149 161 155 149 146 143 142 145 145 144 141 142 140 138 137 136 136 136 135 134 134 133 132 132 131 129 128 127 129 131 133 133 133 135 132 124 117 116 120 125 133 120 102 105 101 93 88 83 73 64 56 54 67 117 143 142 141
232 269 232 230 237 230 255 260 271 277 292 278 265 342 89 110 79 84 47 33 15 336 284 157 152 140 102 101 135 151 155 158 157 153 155 151 148 149 145 142 143 151 151 146 143 143 146 148 149 148 149 148 146 143 141 140 140 140 139 138 138 137 136 136 134 131 129 129 130 132 134 135 136 137 134 128 127 129 131 133 140 142 117 115 110 89 82 84 79 77 64 52 52 75 130 139 128
225 246 235 249 267 259 269 266 280 286 282 269 292 31 57 68 60 72 51 7 357 28 131 147 147 131 99 105 133 156 156 156 152 151 158 150 146 148 148 142 136 141 146 145 144 146 149 153 155 154 156 155 153 151 148 146 144 144 143 143 144 143 143 141 140 136 133 133 130 131 133 136 138 136 136 132 135 140 141 142 147 160 145 134 127 95 89 96 95 94 77 55 52 60 102 136 123
231 244 240 251 275 282 276 265 276 287 269 261 34 84 84 54 52 71 85 155 358 100 128 142 154 139 148 148 163 168 154 148 150 154 160 151 141 143 149 139 130 138 146 149 147 146 150 160 164 160 160 160 159 158 155 153 150 150 148 149 151 150 151 148 146 146 143 141 135 134 134 137 138 137 139 139 141 147 148 153 162 171 162 153 152 134 115 113 118 112 89 57 57 66 88 126 126
242 244 257 258 269 283 268 273 281 281 283 293 11 31 110 86 15 53 125 155 348 165 132 151 168 144 163 164 166 166 154 149 151 153 153 143 137 137 140 135 131 141 146 147 145 147 153 164 170 166 164 165 165 165 163 160 157 156 155 156 158 158 158 155 154 156 157 152 147 144 143 143 141 141 145 146 151 155 155 162 173 178 180 179 181 176 153 154 159 143 121 66 64 77 83 105 124
258 247 246 264 263 269 259 258 263 246 268 344 13 12 29 53 23 34 99 129 316 292 67 136 176 144 160 165 158 156 152 156 156 152 147 139 138 135 138 139 137 142 146 146 149 155 158 168 174 170 169 170 171 171 172 170 166 163 163 164 165 167 165 163 163 167 171 166 162 160 157 154 148 149 150 154 162 160 160 169 175 189 200 200 200 199 203 230 212 174 157 113 95 96 92 94 109
260 233 208 245 244 246 254 250 261 261 191 359 15 32 38 15 20 31 26 99 242 283 88 113 132 131 152 157 151 150 149 153 153 152 147 143 143 141 145 146 142 144 147 149 157 162 161 170 175 172 173 174 176 178 180 179 176 172 171 173 173 174 172 172 175 180 185 178 175 174 170 162 160 169 164 166 168 157 165 171 177 199 207 203 204 209 230 245 266 220 162 141 127 118 118 108 104
245 193 208 225 233 246 259 260 279 312 317 6 23 42 33 357 14 24 354 324 311 348 96 104 105 114 134 145 146 146 144 144 150 154 147 146 150 150 146 141 143 147 151 155 162 165 164 171 174 176 176 176 180 183 184 185 185 181 180 180 181 182 182 183 187 192 193 191 189 185 180 172 184 206 185 183 173 161 167 173 191 210 196 192 200 214 238 233 241 207 165 162 152 131 128 122 107
231 220 245 236 249 258 263 270 291 311 310 18 31 20 3 349 353 348 346 342 329 352 114 114 111 121 131 140 144 142 140 143 154 156 149 151 151 149 144 139 142 146 154 160 164 165 165 170 174 177 178 179 183 184 185 187 188 188 188 188 191 193 191 190 196 202 199 199 198 195 198 196 216 227 206 197 182 171 172 176 197 221 189 191 195 207 260 257 249 216 197 187 164 141 134 123 105
217 207 228 243 260 271 269 278 305 342 2 20 12 3 354 349 327 307 16 2 323 9 134 149 140 136 139 142 143 143 144 149 156 157 154 155 152 152 150 143 141 144 152 157 164 164 163 170 175 178 181 183 185 184 183 184 186 189 192 193 197 199 197 199 206 210 205 204 203 207 215 212 217 220 213 207 191 181 183 184 188 192 184 198 189 137 318 283 216 189 181 170 164 154 144 128 111
225 223 226 234 250 262 272 281 304 9 8 1 360 348 335 320 307 302 4 298 234 16 143 163 152 143 147 147 147 148 151 156 157 156 154 154 155 154 152 148 148 155 155 153 158 159 165 173 177 180 182 184 185 184 181 183 184 187 192 192 195 199 201 205 210 212 209 208 210 212 214 214 215 217 219 213 203 196 188 180 186 187 166 169 161 123 111 97 118 113 109 139 157 158 146 129 115
228 255 239 241 248 248 268 279 294 336 334 337 349 326 318 302 293 307 308 99 105 91 123 145 144 143 147 146 149 152 155 159 157 154 151 153 155 151 151 151 152 156 154 158 157 151 160 169 177 183 180 179 182 186 183 181 185 187 191 190 190 197 202 205 208 213 213 210 214 215 213 214 216 218 220 216 216 212 192 178 207 204 160 165 166 140 142 123 119 116 100 129 151 157 151 136 114
228 246 243 249 255 258 270 280 293 313 332 342 336 321 309 293 298 310 297 103 103 109 120 129 133 134 139 139 145 149 149 150 146 146 149 152 151 148 153 149 151 153 148 164 166 149 150 158 171 182 180 177 181 187 184 182 190 190 190 190 189 196 204 206 207 212 213 208 211 217 216 214 216 215 211 213 217 217 207 197 213 211 170 171 168 140 145 135 117 103 90 115 146 163 168 152 133
236 234 238 247 257 270 282 286 289 299 316 319 308 291 278 280 289 298 279 114 113 118 121 128 130 125 129 133 140 143 143 141 136 137 140 145 144 148 152 146 154 151 137 165 178 159 154 163 167 173 179 180 182 190 187 186 196 194 192 196 194 197 204 207 205 210 216 208 202 207 211 209 210 211 207 208 210 217 214 198 202 203 181 173 167 137 139 135 114 92 73 86 119 155 172 159 156
239 231 231 234 249 273 283 282 280 289 291 276 269 257 259 269 273 280 253 123 121 123 121 125 128 125 127 133 143 147 147 143 138 136 134 135 139 145 145 145 159 152 148 178 185 176 163 163 163 164 169 171 175 186 183 179 194 198 198 203 200 199 206 208 201 204 218 215 202 197 200 200 201 205 211 211 208 212 205 190 194 192 181 174 167 149 148 141 117 89 70 83 90 98 125 138 162
280 262 254 254 252 263 271 270 264 268 268 248 239 255 254 252 243 264 187 129 123 118 117 121 126 129 132 137 145 150 153 146 142 141 135 134 136 140 142 150 159 150 167 191 193 190 169 160 159 153 153 156 162 163 156 159 169 180 189 196 196 201 209 208 202 201 212 218 210 197 195 198 199 202 213 217 210 205 197 193 194 184 178 179 176 167 167 154 140 128 84 111 97 90 106 106 127
290 290 291 284 280 274 274 280 275 270 257 230 224 245 260 249 231 232 154 133 129 120 118 122 126 131 135 139 144 148 150 146 143 138 135 139 142 145 148 153 150 140 162 195 198 191 171 160 156 150 151 148 155 157 145 146 145 150 171 184 185 197 205 203 206 204 204 208 210 204 200 204 208 205 209 214 208 202 200 198 195 185 175 184 196 178 173 164 163 175 194 243 136 121 197 190 141
276 277 300 294 303 287 274 277 269 270 259 228 221 236 267 258 229 222 179 138 128 122 119 121 124 128 134 139 142 140 141 141 139 135 134 140 145 149 148 144 138 136 150 176 184 177 167 160 153 157 164 156 157 160 148 152 146 136 152 169 174 193 201 199 206 207 202 201 207 211 207 206 211 207 208 211 206 206 209 205 198 190 177 200 218 187 179 175 167 160 150 160 151 154 197 197 190
261 259 286 276 299 275 258 250 250 250 244 235 218 237 263 265 252 213 169 137 128 122 120 124 127 130 137 141 139 136 139 141 139 137 134 136 148 148 139 134 134 139 156 170 168 159 158 155 150 156 161 157 157 152 151 160 151 148 161 164 167 190 205 201 202 203 204 201 204 212 210 210 213 208 211 215 212 211 214 215 213 205 198 211 221 202 197 188 171 160 157 165 167 171 175 174 184
274 283 292 230 250 260 243 227 233 229 235 224 195 238 250 265 267 171 141 140 138 128 126 132 134 134 140 143 140 137 143 148 148 147 138 138 150 148 143 145 146 154 170 179 170 157 158 160 163 164 154 153 157 155 161 166 156 162 175 168 161 170 197 208 203 196 199 200 202 208 208 210 212 206 213 221 218 215 215 218 220 217 215 215 210 209 209 193 172 173 178 185 187 189 189 186 187
230 248 281 233 209 255 248 217 216 211 224 202 168 239 253 267 251 151 142 145 139 131 134 139 140 138 141 145 146 143 148 156 159 158 147 143 153 168 174 161 160 174 181 182 176 169 170 176 185 180 170 170 172 170 171 171 165 166 174 179 180 174 176 192 191 187 195 199 198 201 205 209 210 207 209 213 213 214 215 217 219 221 228 234 229 223 222 208 189 185 184 193 198 198 200 201 200
237 195 242 241 214 250 255 219 208 201 206 169 153 225 256 278 198 144 142 140 134 132 137 141 143 145 147 150 153 154 156 161 164 162 155 156 168 183 180 166 172 185 187 187 184 180 179 178 176 171 175 178 175 172 170 171 169 168 177 181 178 167 161 153 145 164 184 188 190 197 204 208 213 215 207 202 203 208 215 221 224 224 229 236 238 239 232 215 203 196 192 199 203 199 201 204 205
282 231 237 253 241 246 236 208 200 192 184 144 158 221 242 279 161 135 133 130 129 135 143 144 146 150 153 154 156 160 163 166 168 167 164 168 169 166 169 173 183 188 190 192 189 184 176 167 159 155 159 161 157 158 162 169 170 168 169 156 143 140 143 146 133 134 147 160 178 189 192 198 208 216 209 207 212 213 219 232 234 229 231 234 231 238 234 212 206 203 199 202 204 201 204 206 203
293 275 254 271 270 256 199 184 197 184 175 143 162 225 239 247 191 135 144 146 134 140 148 146 148 151 153 155 157 160 165 169 171 171 169 171 164 155 165 179 185 190 193 191 184 179 171 160 155 151 151 152 149 147 149 158 155 145 137 129 134 134 136 149 155 148 141 143 161 168 168 180 190 199 205 211 221 220 227 238 234 220 224 232 227 231 227 206 207 207 202 205 207 203 208 210 198
325 312 279 290 293 272 212 172 179 169 158 156 168 215 239 220 213 162 164 162 140 137 140 140 149 153 154 159 161 163 167 170 170 170 170 170 166 164 170 180 186 192 191 184 178 175 170 162 158 153 153 151 145 144 142 144 140 137 139 143 146 138 132 142 155 166 159 152 162 167 166 172 171 166 168 182 199 206 219 234 234 213 212 219 213 220 221 207 210 211 205 208 211 208 211 214 209
335 331 316 323 323 302 317 138 168 147 121 184 185 217 254 231 230 212 179 157 133 135 139 142 154 156 159 166 168 168 171 173 171 170 172 171 170 171 175 182 187 190 187 181 178 176 173 165 160 155 155 153 149 149 145 142 142 143 149 155 154 152 148 146 146 152 151 150 159 169 174 181 177 170 170 172 176 184 200 222 229 214 209 210 205 208 210 208 210 211 207 209 212 212 213 215 217
358 353 335 323 318 317 1 87 160 102 100 258 342 348 288 301 310 274 186 150 137 149 149 151 161 163 168 173 172 171 171 173 172 172 175 174 172 175 180 184 185 188 186 183 181 179 177 169 164 160 157 160 159 151 144 144 147 148 152 157 156 159 165 162 154 152 148 149 154 155 165 177 183 191 193 182 174 171 155 176 210 206 196 201 201 193 193 202 209 210 209 212 216 217 216 215 218
8 0 350 310 305 331 345 26 52 54 86 341 4 8 309 316 330 315 202 145 154 162 160 161 165 167 173 175 171 169 171 174 175 177 178 175 174 178 184 185 185 189 188 187 187 183 181 175 170 168 165 168 166 155 152 152 155 158 157 159 159 154 158 162 162 164 164 160 163 163 161 158 153 156 162 160 166 166 149 172 209 195 172 169 171 176 181 193 208 214 214 217 220 220 218 219 221
329 316 337 290 295 345 330 330 27 36 66 78 36 6 317 318 340 331 305 124 143 157 160 165 170 173 176 175 171 170 173 178 179 181 180 176 177 182 187 185 184 190 192 192 194 191 187 183 178 177 175 174 168 165 171 167 162 167 166 161 162 154 150 151 149 152 155 149 151 157 154 149 141 136 145 159 171 175 175 195 219 189 156 134 117 123 141 163 193 208 213 218 221 221 221 221 222
295 240 221 262 286 313 346 302 359 19 11 55 54 14 318 315 341 313 297 35 127 149 152 162 172 176 177 173 172 174 177 180 181 181 181 180 180 184 188 188 187 192 195 196 199 199 194 190 185 184 183 179 174 176 181 178 169 172 171 166 167 163 153 148 139 134 133 131 135 144 150 153 152 146 154 165 167 168 164 142 135 155 152 136 122 117 125 137 158 183 197 210 219 224 220 218 219
307 255 222 227 267 286 262 281 44 45 344 322 90 52 299 301 318 280 284 332 180 156 141 145 147 161 173 175 175 178 179 178 179 181 182 184 185 186 189 191 192 194 195 196 199 202 201 197 192 190 190 185 182 185 186 183 179 177 176 172 172 168 157 150 142 133 130 129 127 130 140 152 159 158 162 164 161 162 152 128 129 142 149 148 143 140 141 140 138 151 166 178 200 221 220 217 217
290 261 253 245 260 273 259 270 53 111 252 261 141 134 269 301 313 277 277 299 237 157 123 133 121 143 164 173 175 176 178 178 180 182 184 188 190 189 191 194 196 196 195 194 197 203 205 201 195 193 196 194 193 192 189 187 186 183 181 174 166 159 152 147 141 134 129 127 125 124 127 138 152 160 164 158 154 157 148 132 134 145 150 149 151 157 154 147 145 147 147 136 140 170 192 209 213
249 244 273 298 291 289 273 266 264 183 208 308 156 140 164 282 285 270 276 305 264 186 124 131 142 152 159 166 173 175 177 179 179 181 183 187 190 190 194 198 200 201 198 196 199 203 208 206 199 195 196 201 205 200 193 192 189 181 177 170 159 152 147 143 140 136 133 131 130 128 126 126 130 139 147 151 154 155 148 138 140 150 154 153 160 170 167 166 180 188 178 158 142 143 145 158 176
232 223 225 268 306 322 318 302 272 199 124 310 270 151 152 264 271 279 291 306 271 173 143 123 131 142 151 162 170 171 173 176 179 182 183 187 191 194 200 203 206 208 206 206 206 205 206 208 205 203 202 205 213 210 199 196 192 180 172 163 154 149 145 142 141 140 140 141 133 124 119 115 112 109 114 126 145 156 156 149 152 161 162 166 178 188 188 194 214 224 216 199 179 167 150 143 147
215 199 219 333 346 329 319 316 314 34 98 232 268 266 137 277 280 296 320 293 229 149 156 126 88 84 118 152 165 162 166 174 181 186 187 191 196 200 205 209 213 214 212 212 211 206 205 208 210 211 210 212 218 218 207 201 194 181 170 160 151 149 149 147 146 146 146 140 128 119 113 110 110 109 106 103 113 142 159 162 168 172 160 155 164 175 181 182 189 196 203 199 184 173 165 154 144
173 117 47 5 345 298 291 300 60 60 17 242 248 249 210 275 276 245 282 251 202 147 125 114 97 92 105 139 162 166 169 178 184 186 187 191 197 204 209 214 219 221 220 218 215 213 211 212 215 213 209 212 221 221 213 205 196 181 168 161 154 151 152 152 151 150 146 133 123 118 117 115 114 112 112 109 104 119 145 157 162 152 130 124 126 131 132 127 126 132 147 166 169 167 168 167 162
117 93 72 33 347 315 309 333 40 82 274 256 272 303 223 220 261 244 268 266 171 137 132 120 103 98 95 106 134 144 146 161 169 172 183 189 196 209 215 220 225 227 226 223 222 222 215 211 212 208 203 209 220 222 215 209 198 180 170 168 161 153 153 155 154 150 141 131 124 122 120 119 118 116 114 114 112 113 122 130 130 123 118 115 112 111 109 105 105 104 108 121 133 141 146 147 151
37 83 77 58 345 332 350 333 14 163 250 267 23 4 327 216 246 264 270 262 84 79 134 129 111 106 101 98 105 110 113 126 134 141 164 181 191 207 216 221 227 231 230 228 226 221 211 207 206 202 200 207 218 219 213 209 201 181 175 176 167 157 154 155 154 147 139 128 122 120 119 118 118 120 118 116 117 117 118 118 117 115 111 108 108 108 106 103 101 100 101 103 106 111 113 114 119
227 132 128 133 166 311 308 277 324 252 272 304 30 39 324 272 279 293 279 240 77 74 100 114 109 107 106 101 100 101 104 110 119 129 148 174 188 199 211 222 229 231 231 232 229 221 214 212 207 201 199 205 214 214 208 206 200 183 179 183 175 163 155 154 154 150 143 132 123 121 121 120 119 119 119 119 118 120 123 122 121 120 113 107 105 104 104 102 97 96 96 96 100 101 100 105 109
232 199 153 149 150 153 203 192 152 233 268 307 357 116 257 264 265 284 288 91 88 88 95 99 100 102 103 101 100 100 98 94 97 99 110 165 195 196 204 229 234 229 228 229 226 222 221 216 206 200 200 205 210 209 204 203 199 185 182 189 187 173 161 157 157 156 152 140 127 126 127 125 124 123 122 122 122 122 123 124 125 125 123 119 114 108 104 101 98 96 97 98 102 100 103 109 107
267 237 127 162 167 145 166 172 176 181 133 308 283 194 232 216 257 278 340 92 95 99 101 95 92 96 100 101 98 99 99 97 96 88 90 125 166 177 193 215 212 216 222 223 219 221 227 222 210 204 203 203 204 203 200 199 196 187 185 194 199 187 174 169 168 167 165 152 135 130 130 127 124 124 124 124 125 125 123 125 127 128 130 130 127 122 112 106 104 100 100 98 96 97 99 101 100
279 312 165 200 166 132 131 228 216 139 87 275 240 236 277 30 309 277 150 115 111 113 113 107 99 98 100 103 103 106 110 112 115 112 109 120 133 143 157 134 133 162 178 198 209 221 226 211 196 197 199 198 199 199 197 198 197 190 187 197 207 200 189 184 179 176 173 165 152 139 134 132 127 123 124 123 124 125 126 127 129 132 135 135 133 131 125 121 119 112 106 103 103 107 104 101 101
50 307 265 250 96 104 111 117 312 73 98 256 221 211 232 173 274 268 165 149 143 128 122 108 102 101 100 104 107 109 112 120 126 127 124 128 138 145 149 141 142 160 172 185 196 212 206 180 177 188 196 197 200 199 195 195 198 197 193 201 211 207 198 195 189 182 179 172 165 158 153 147 138 130 126 124 120 120 123 127 131 135 137 141 141 140 138 134 137 135 122 113 111 111 108 109 112
203 244 278 43 77 8 65 137 178 171 199 278 259 241 207 159 237 293 241 199 174 145 132 118 112 110 107 108 110 111 115 124 128 128 129 129 129 138 147 151 160 170 183 204 216 205 202 152 161 178 192 198 202 201 195 194 197 202 202 208 216 213 204 200 194 185 186 183 177 175 175 171 168 159 145 140 132 119 111 115 126 137 144 151 151 151 153 148 149 152 142 133 120 112 116 127 129
266 256 289 64 149 174 179 175 163 159 187 252 285 283 318 261 256 289 273 225 143 121 122 123 126 122 117 118 120 123 127 130 129 130 136 132 126 130 133 141 158 163 167 181 182 183 212 217 181 161 182 195 201 201 196 193 194 198 203 209 215 216 211 205 198 192 194 196 192 191 192 193 200 200 187 185 187 176 175 145 105 311 248 218 217 207 200 196 186 181 178 181 179 167 172 181 170
26 324 292 297 342 71 51 342 94 117 145 191 12 340 281 265 273 298 302 6 84 82 77 94 118 120 122 127 129 133 136 134 133 136 141 141 136 132 133 144 159 166 173 178 164 161 174 200 198 179 183 193 197 197 194 193 193 193 199 203 202 201 200 197 198 203 205 201 199 201 205 208 210 214 217 227 242 241 242 252 260 277 290 287 287 283 269 261 255 244 235 230 229 229 224 218 213
321 202 178 169 113 89 58 354 327 67 127 167 141 197 263 260 267 316 354 31 69 77 73 81 106 113 120 129 133 136 138 133 128 124 128 138 142 141 145 153 163 173 181 180 169 166 158 149 155 163 181 187 188 191 192 194 194 193 200 204 198 194 194 188 184 194 200 200 197 196 199 204 211 222 238 252 269 277 277 275 272 276 283 282 285 288 283 277 274 271 266 260 251 250 261 260 240